TimeCDT,TemperatureF,Dew PointF,Humidity,Sea Level PressureIn,VisibilityMPH,Wind Direction,Wind SpeedMPH,Gust SpeedMPH,PrecipitationIn,Events,Conditions,WindDirDegrees,DateUTC
12:15 AM,78.8,73.4,83,29.87,10.0,Calm,Calm,-,N/A,,Scattered Clouds,0,2013-08-31 05:15:00
12:35 AM,75.2,73.4,94,29.87,10.0,Calm,Calm,-,N/A,,Partly Cloudy,0,2013-08-31 05:35:00
12:55 AM,75.2,71.6,89,29.87,10.0,Calm,Calm,-,N/A,,Partly Cloudy,0,2013-08-31 05:55:00
1:15 AM,75.2,71.6,89,29.86,10.0,SSW,4.6,-,N/A,,Clear,210,2013-08-31 06:15:00
1:35 AM,75.2,73.4,94,29.86,10.0,SW,3.5,-,N/A,,Scattered Clouds,220,2013-08-31 06:35:00
1:55 AM,75.2,73.4,94,29.85,10.0,SSW,3.5,-,N/A,,Partly Cloudy,200,2013-08-31 06:55:00
2:15 AM,75.2,73.4,94,29.86,10.0,SSW,3.5,-,N/A,,Clear,210,2013-08-31 07:15:00
2:35 AM,75.2,73.4,94,29.86,10.0,SW,3.5,-,N/A,,Clear,220,2013-08-31 07:35:00
2:55 AM,75.2,73.4,94,29.86,10.0,Calm,Calm,-,N/A,,Mostly Cloudy,0,2013-08-31 07:55:00
3:15 AM,75.2,73.4,94,29.88,10.0,NNE,11.5,-,N/A,,Mostly Cloudy,20,2013-08-31 08:15:00
3:35 AM,78.8,73.4,83,29.88,10.0,Calm,Calm,-,N/A,,Mostly Cloudy,0,2013-08-31 08:35:00
3:55 AM,77.0,73.4,89,29.87,10.0,Calm,Calm,-,N/A,,Clear,0,2013-08-31 08:55:00
4:15 AM,75.2,73.4,94,29.87,10.0,Calm,Calm,-,N/A,,Clear,0,2013-08-31 09:15:00
4:35 AM,75.2,73.4,94,29.86,10.0,Calm,Calm,-,N/A,,Clear,0,2013-08-31 09:35:00
4:55 AM,73.4,71.6,94,29.87,10.0,Calm,Calm,-,N/A,,Clear,0,2013-08-31 09:55:00
5:15 AM,75.2,71.6,89,29.86,10.0,Calm,Calm,-,N/A,,Clear,0,2013-08-31 10:15:00
5:35 AM,73.4,71.6,94,29.86,10.0,Calm,Calm,-,N/A,,Clear,0,2013-08-31 10:35:00
5:55 AM,71.6,71.6,100,29.86,2.5,Calm,Calm,-,N/A,,Clear,0,2013-08-31 10:55:00
6:15 AM,71.6,71.6,100,29.86,7.0,Calm,Calm,-,N/A,,Clear,0,2013-08-31 11:15:00
6:35 AM,73.4,71.6,94,29.87,9.0,Calm,Calm,-,N/A,,Clear,0,2013-08-31 11:35:00
6:55 AM,71.6,69.8,94,29.88,1.0,Calm,Calm,-,N/A,,Clear,0,2013-08-31 11:55:00
7:15 AM,73.4,71.6,94,29.88,8.0,Calm,Calm,-,N/A,,Clear,0,2013-08-31 12:15:00
7:35 AM,75.2,73.4,94,29.87,10.0,SSW,3.5,-,N/A,,Clear,210,2013-08-31 12:35:00
7:55 AM,78.8,73.4,83,29.88,10.0,Calm,Calm,-,N/A,,Clear,0,2013-08-31 12:55:00
8:15 AM,80.6,75.2,84,29.88,10.0,SSW,3.5,-,N/A,,Clear,210,2013-08-31 13:15:00
8:35 AM,82.4,75.2,79,29.88,10.0,SSW,5.8,-,N/A,,Clear,200,2013-08-31 13:35:00
8:55 AM,82.4,75.2,79,29.88,10.0,SSW,6.9,-,N/A,,Clear,210,2013-08-31 13:55:00
9:15 AM,84.2,75.2,74,29.89,10.0,SSW,9.2,-,N/A,,Clear,200,2013-08-31 14:15:00
9:35 AM,86.0,75.2,70,29.88,10.0,SW,6.9,-,N/A,,Clear,220,2013-08-31 14:35:00
9:55 AM,87.8,75.2,66,29.88,10.0,SSW,8.1,-,N/A,,Clear,210,2013-08-31 14:55:00
10:15 AM,89.6,75.2,62,29.88,10.0,SW,9.2,-,N/A,,Clear,220,2013-08-31 15:15:00
10:35 AM,89.6,75.2,62,29.87,10.0,SSW,8.1,-,N/A,,Clear,200,2013-08-31 15:35:00
10:55 AM,91.4,75.2,59,29.87,10.0,SSW,8.1,-,N/A,,Clear,200,2013-08-31 15:55:00
11:15 AM,93.2,75.2,56,29.87,10.0,SSW,9.2,-,N/A,,Clear,200,2013-08-31 16:15:00
11:35 AM,93.2,75.2,56,29.86,10.0,SSW,8.1,-,N/A,,Clear,210,2013-08-31 16:35:00
11:55 AM,93.2,75.2,56,29.86,10.0,SW,9.2,-,N/A,,Clear,230,2013-08-31 16:55:00
12:15 PM,95.0,75.2,53,29.85,10.0,SW,9.2,-,N/A,,Clear,230,2013-08-31 17:15:00
12:35 PM,95.0,73.4,49,29.84,10.0,SW,8.1,-,N/A,,Clear,220,2013-08-31 17:35:00
12:55 PM,95.0,75.2,53,29.84,10.0,SW,8.1,-,N/A,,Clear,220,2013-08-31 17:55:00
1:15 PM,96.8,75.2,50,29.84,10.0,South,11.5,-,N/A,,Partly Cloudy,190,2013-08-31 18:15:00
1:35 PM,96.8,75.2,50,29.83,10.0,SSW,11.5,-,N/A,,Partly Cloudy,200,2013-08-31 18:35:00
1:55 PM,98.6,75.2,47,29.83,10.0,SSW,10.4,-,N/A,,Partly Cloudy,200,2013-08-31 18:55:00
2:15 PM,98.6,75.2,47,29.82,10.0,South,11.5,-,N/A,,Clear,190,2013-08-31 19:15:00
2:35 PM,98.6,75.2,47,29.81,10.0,South,15.0,-,N/A,,Clear,190,2013-08-31 19:35:00
2:55 PM,98.6,75.2,47,29.81,10.0,South,11.5,-,N/A,,Clear,180,2013-08-31 19:55:00
3:15 PM,98.6,75.2,47,29.80,10.0,SSW,12.7,-,N/A,,Clear,200,2013-08-31 20:15:00
3:35 PM,98.6,75.2,47,29.79,10.0,SSW,11.5,-,N/A,,Clear,200,2013-08-31 20:35:00
3:55 PM,98.6,75.2,47,29.79,10.0,South,12.7,-,N/A,,Clear,190,2013-08-31 20:55:00
4:15 PM,98.6,75.2,47,29.77,10.0,SSW,12.7,-,N/A,,Clear,200,2013-08-31 21:15:00
4:35 PM,98.6,75.2,47,29.77,10.0,South,13.8,-,N/A,,Clear,180,2013-08-31 21:35:00
4:55 PM,96.8,75.2,50,29.76,10.0,South,11.5,-,N/A,,Clear,190,2013-08-31 21:55:00
5:15 PM,96.8,75.2,50,29.76,10.0,SSW,11.5,-,N/A,,Clear,200,2013-08-31 22:15:00
5:35 PM,96.8,75.2,50,29.75,10.0,SSW,12.7,-,N/A,,Clear,210,2013-08-31 22:35:00
5:55 PM,95.0,75.2,53,29.75,10.0,SSW,10.4,-,N/A,,Clear,200,2013-08-31 22:55:00
6:15 PM,93.2,75.2,56,29.75,10.0,SSW,11.5,-,N/A,,Clear,200,2013-08-31 23:15:00
6:35 PM,91.4,75.2,59,29.75,10.0,SSW,9.2,-,N/A,,Clear,200,2013-08-31 23:35:00
6:55 PM,91.4,73.4,55,29.76,10.0,South,9.2,-,N/A,,Clear,190,2013-08-31 23:55:00
7:15 PM,89.6,75.2,62,29.77,10.0,South,6.9,-,N/A,,Clear,190,2013-09-01 00:15:00
7:35 PM,87.8,75.2,66,29.77,10.0,South,5.8,-,N/A,,Clear,180,2013-09-01 00:35:00
7:55 PM,87.8,75.2,66,29.77,10.0,South,8.1,-,N/A,,Clear,180,2013-09-01 00:55:00
8:15 PM,86.0,73.4,66,29.77,10.0,SSW,5.8,-,N/A,,Clear,200,2013-09-01 01:15:00
8:35 PM,86.0,73.4,66,29.76,10.0,South,8.1,-,N/A,,Clear,190,2013-09-01 01:35:00
8:55 PM,84.2,73.4,70,29.76,10.0,SSW,8.1,-,N/A,,Clear,200,2013-09-01 01:55:00
9:15 PM,84.2,73.4,70,29.77,10.0,SSW,8.1,-,N/A,,Clear,210,2013-09-01 02:15:00
9:35 PM,84.2,73.4,70,29.78,10.0,SSW,8.1,-,N/A,Thunderstorm,Partly Cloudy,210,2013-09-01 02:35:00
9:55 PM,86.0,75.2,70,29.81,10.0,WNW,6.9,-,N/A,Thunderstorm,Mostly Cloudy,290,2013-09-01 02:55:00
10:15 PM,82.4,69.8,66,29.83,10.0,NNW,4.6,-,N/A,Thunderstorm,Thunderstorm,340,2013-09-01 03:15:00
10:35 PM,78.8,68.0,69,29.82,9.0,NNW,3.5,-,0.01,Thunderstorm,Thunderstorm,330,2013-09-01 03:35:00
10:55 PM,73.4,68.0,83,29.80,10.0,Calm,Calm,-,0.02,Thunderstorm,Thunderstorm,0,2013-09-01 03:55:00
11:15 PM,73.4,71.6,94,29.78,10.0,South,8.1,-,N/A,,Partly Cloudy,190,2013-09-01 04:15:00
11:35 PM,73.4,69.8,88,29.80,10.0,NNE,3.5,-,N/A,,Clear,20,2013-09-01 04:35:00
11:55 PM,73.4,71.6,94,29.79,10.0,Calm,Calm,-,N/A,,Clear,0,2013-09-01 04:55:00